Location: Arrien
(42.8963°N, 1.0429°E)
Time: 23:00:01
(UTC+00:00)

Aureole 1 Rocket - Pass Details

Date: 11 December 2025
Orbit: 372 x 1167 km, 73.9° (Epoch: 19 January)

Event Time Altitude Azimuth Distance (km) Brightness Sun altitude
Rises 17:14:07 0° 166° (SSE) 2,679 6.4 -9.4°
Reaches altitude 10° 17:16:21 10° 153° (SSE) 1,907 5.5 -9.8°
Maximum altitude 17:19:55 26° 96° (E) 1,312 4.2 -10.4°
Enters shadow 17:23:50 12° 43° (NE) 2,211 5.3 -11.1°
